[[{"header":{"parameterUnit":"m.s-1","parameterCategory":1,"la1":30.2991,"la2":30.254,"lo1":-89.0895,"lo2":-89.0444,"dy":0.0017,"dx":0.0017,"nx":28,"ny":28,"refTime":"2024-07-09T09:00:00:Z","depth":0,"parameterNumber":2,"parameterNumberName":"U-component_of_WINDS"},"data":[0,0,0,0,0,0,0,0,0,0,0,0,0,0,0,0,0,0,0,0,0,0,0,0,0,0,0,0,0,0,0,0,0,0,0,0,0,0,0,0,0,0,0,0,0,0,0,0,0,0,0,0,0,0,0,0,0,0,4.3162,4.3163,0,4.3201,4.3202,4.3202,4.3131,4.3128,4.3126,4.3124,4.3161,4.3164,4.3167,0,0,0,0,0,0,0,0,0,0,0,0,0,4.3023,4.3026,4.3162,4.3163,4.3163,4.3201,4.3202,4.3202,4.3131,4.3128,4.3125,4.3122,4.316,4.3163,4.3167,0,0,0,0,0,0,0,0,0,0,0,0,0,4.3075,4.3027,4.3162,4.3132,4.313,4.3201,4.3202,4.3202,4.3132,4.3128,4.3124,4.3121,4.3158,4.3163,4.3168,4.3269,0,0,4.3183,4.3185,0,0,0,0,0,0,0,0,4.3072,4.308,4.3136,4.3135,4.3132,4.3157,4.3166,4.3224,4.3132,4.3131,4.3123,4.3119,4.3162,4.3167,4.3182,4.3271,4.3272,4.3183,4.3186,4.3188,4.3189,0,0,0,0,0,0,0,4.3068,4.3078,4.3177,4.3137,4.3135,4.3116,4.3119,4.3177,4.3166,4.3131,4.3126,4.3131,4.316,4.3177,4.3182,4.3273,4.3183,4.3187,4.319,4.3192,4.3444,4.3447,0,0,0,0,0,0,4.3069,4.3075,4.3176,4.3179,4.3093,4.3121,4.3125,4.3153,4.3165,4.3164,4.3134,4.3128,4.3171,4.3176,4.3183,4.33,4.3188,4.3192,4.3195,4.344,4.3444,4.3449,0,0,0,0,0,0,4.3066,4.3079,4.3175,4.3126,4.3136,4.3127,4.3159,4.3155,4.3172,4.3168,4.3165,4.3154,4.3168,4.3176,4.3248,4.33,4.3195,4.3199,4.3435,4.3441,4.3447,4.3536,0,0,0,0,0,0,4.3062,4.3078,4.3117,4.3127,4.3139,4.324,4.3163,4.3159,4.3181,4.3173,4.3185,4.3184,4.3166,4.3241,4.3252,4.3305,4.3203,4.3431,4.3438,4.3445,4.3528,4.3544,4.3557,0,0,0,0,0,4.3058,4.3141,4.312,4.3132,4.3188,4.3243,4.325,4.3228,4.3186,4.3224,4.3221,4.3184,4.3293,4.3249,4.3261,4.3316,4.3427,4.3436,4.3444,4.3522,4.3541,4.3557,0,0,0,0,0,0,4.3137,4.3142,4.3118,4.3207,4.3225,4.3231,4.3279,4.325,4.328,4.3271,4.3242,4.3245,4.3322,4.3326,4.3277,4.3413,4.3353,4.3364,4.3407,4.3425,4.344,4.3436,4.3207,0,0,0,0,0,4.3165,4.321,4.3211,4.329,4.33,4.3288,4.3311,4.3293,4.331,4.3318,4.332,4.3337,4.3375,4.3401,4.3436,4.3529,4.3529,4.3573,4.3587,4.3599,4.3609,4.3656,4.3674,4.3477,4.3477,4.3476,0,0,4.3222,4.3231,4.3261,4.3306,4.3318,4.3363,4.3295,4.3347,4.338,4.3325,4.3392,4.3395,4.3412,4.3494,4.353,4.35,4.3664,4.361,4.362,4.3623,4.3667,4.3685,4.3702,4.3482,4.3481,4.348,0,0,4.335,4.3363,4.3428,4.3441,4.3461,4.3452,4.3468,4.3478,4.3478,4.3545,4.3504,4.3542,4.3609,4.3623,4.3638,4.3771,4.3737,4.3783,4.3859,4.3905,4.3921,4.3934,4.3979,4.3996,4.3793,4.3793,4.3794,0,4.3419,4.3488,4.3465,4.352,4.3539,4.3492,4.3557,4.3571,4.3601,4.3615,4.3581,4.3662,4.3671,4.3754,4.3787,4.3802,4.3817,4.3781,4.3921,4.3934,4.3946,4.3989,4.4006,4.3799,4.3798,4.3798,4.3797,0,4.3571,4.3619,4.3669,4.3699,4.3725,4.3785,4.3769,4.3798,4.3777,4.3772,4.384,4.3848,4.3883,4.3902,4.3883,4.3983,4.3963,4.3926,4.3864,4.3971,4.401,4.4026,4.3806,4.3804,4.3803,4.3802,0,0,4.3749,4.3765,4.3783,4.3795,4.3813,4.3849,4.3906,4.3941,4.3965,4.3987,4.4032,4.4089,4.4054,4.4072,4.4054,4.4095,4.4196,4.4052,4.4052,4.4076,4.4304,4.433,4.4349,4.4175,4.4178,4.418,4.4301,0,4.3874,4.3972,4.3953,4.4048,4.4091,4.4047,4.4096,4.4111,4.4108,4.4142,4.4138,4.4178,4.4131,4.4141,4.4179,4.4176,4.4241,4.4167,4.4214,4.4216,4.4209,4.437,4.4399,4.4513,4.4317,4.432,4.4321,0,4.4033,4.4061,4.4161,4.417,4.4187,4.4232,4.4261,4.4296,4.4311,4.4306,4.4326,4.4299,4.4354,4.4293,4.4367,4.4317,4.4335,4.4336,4.434,4.4341,4.4274,4.4374,4.4549,4.4565,4.4346,4.4344,4.4342,0,4.4149,4.4212,4.4279,4.4292,4.4305,4.4337,4.4343,4.4356,4.4377,4.4403,4.4416,4.4448,4.4465,4.4489,4.4471,4.4429,4.4547,4.4485,4.4542,4.4542,4.4567,4.4565,4.4745,4.4583,4.4583,4.4582,4.4582,0,4.429,4.4352,4.4332,4.4373,4.444,4.4417,4.4485,4.4486,4.4497,4.4537,4.4501,4.4539,4.4514,4.4549,4.4536,4.4597,4.4606,4.4601,4.4596,4.4603,4.4603,4.4613,4.4603,4.4587,4.4586,4.4585,4.4584,0,4.443,4.442,4.449,4.4496,4.4499,4.4549,4.4554,4.4591,4.4585,4.4636,4.4646,4.4636,4.4676,4.4661,4.4703,4.4694,4.4772,4.4758,4.4766,4.4762,4.4818,4.4812,4.5008,4.5031,4.4857,4.4859,4.4861,0,4.4519,4.4566,4.4578,4.4602,4.4611,4.4651,4.4673,4.4652,4.4676,4.4697,4.4731,4.4768,4.4795,4.486,4.4856,4.4888,4.4873,4.4939,4.4877,4.4881,4.487,4.4867,4.487,4.4951,4.4953,4.4954,4.4956,0,4.4677,4.467,4.4703,4.4735,4.4762,4.4785,4.4806,4.4827,4.4807,4.4835,4.4875,4.4897,4.494,4.4976,4.5004,4.5009,4.4979,4.4976,4.499,4.4996,4.4998,4.4995,4.4797,4.4971,4.4969,4.4968,4.4967,4.4967,4.4793,4.4832,4.4846,4.4883,4.4897,4.4916,4.4951,4.495,4.4983,4.5016,4.5002,4.5048,4.5061,4.5096,4.5105,4.514,4.5114,4.5135,4.514,4.5145,4.5151,4.4995,4.5145,4.5145,4.5144,4.5144,4.5144,0,4.4947,4.4954,4.4989,4.5018,4.5048,4.5018,4.5039,4.5065,4.5106,4.5121,4.5149,4.5195,4.5229,4.5228,4.526,4.5287,4.5274,4.5296,4.5292,4.5294,4.5174,4.5157,4.5306,4.5306,4.5306,4.5306,4.5306,4.5306,4.503,4.5093,4.5087,4.5156,4.5162,4.5207,4.5221,4.5238,4.525,4.5302,4.5331,4.5331,4.5339,4.5371,4.54,4.5399,4.5411,4.5438,4.5431,4.5319,4.5302,4.5287,4.5271,4.5441,4.5442,4.5548,4.5549,4.5549]},{"header":{"parameterUnit":"m.s-1","parameterCategory":1,"la1":30.2991,"la2":30.254,"lo1":-89.0895,"lo2":-89.0444,"dy":0.0017,"dx":0.0017,"nx":28,"ny":28,"refTime":"2024-07-09T09:00:00:Z","depth":0,"parameterNumber":3,"parameterNumberName":"V-component_of_WINDS"},"data":[0,0,0,0,0,0,0,0,0,0,0,0,0,0,0,0,0,0,0,0,0,0,0,0,0,0,0,0,0,0,0,0,0,0,0,0,0,0,0,0,0,0,0,0,0,0,0,0,0,0,0,0,0,0,0,0,0,0,7.0105,7.0106,0,7.0234,7.0236,7.0237,7.024,7.0238,7.0237,7.0235,7.0359,7.0363,7.0368,0,0,0,0,0,0,0,0,0,0,0,0,0,6.9848,6.9853,7.0105,7.0106,7.0108,7.0234,7.0236,7.0238,7.024,7.0238,7.0236,7.0234,7.0357,7.0363,7.0369,0,0,0,0,0,0,0,0,0,0,0,0,0,6.9967,6.9855,7.0104,7.0125,7.0128,7.0234,7.0236,7.0238,7.024,7.0238,7.0236,7.0233,7.0355,7.0362,7.0369,7.0461,0,0,7.0391,7.0394,0,0,0,0,0,0,0,0,6.996,6.9976,7.012,7.0123,7.0127,7.0219,7.0191,7.0313,7.0241,7.0197,7.0235,7.0232,7.0313,7.0324,7.0353,7.0467,7.0472,7.0392,7.0396,7.0399,7.0401,0,0,0,0,0,0,0,6.9952,6.997,7.0156,7.0122,7.0126,7.0124,7.0138,7.0214,7.0267,7.0201,7.0201,7.0217,7.0315,7.0346,7.0356,7.0474,7.0392,7.0398,7.0402,7.0405,7.0667,7.067,0,0,0,0,0,0,6.9941,6.9964,7.0152,7.016,7.0036,7.013,7.0146,7.0191,7.0266,7.0275,7.0219,7.0217,7.0335,7.0348,7.036,7.0472,7.0399,7.0406,7.041,7.0665,7.0668,7.0671,0,0,0,0,0,0,6.9936,6.9958,7.0146,7.0062,7.0086,7.0137,7.0188,7.0195,7.0227,7.028,7.0288,7.0242,7.0334,7.035,7.0436,7.0476,7.0409,7.0416,7.0661,7.0666,7.0669,7.0696,0,0,0,0,0,0,6.9928,6.9956,6.9994,7.0063,7.009,7.0223,7.0191,7.02,7.024,7.0239,7.0304,7.0312,7.0333,7.0426,7.0443,7.0485,7.0421,7.0658,7.0663,7.0668,7.0692,7.0701,7.0708,0,0,0,0,0,6.9919,6.9995,6.9996,7.0019,7.014,7.0226,7.0241,7.0266,7.0244,7.0281,7.0314,7.031,7.0469,7.0434,7.0454,7.0499,7.0656,7.0662,7.0668,7.0689,7.0699,7.0708,0,0,0,0,0,0,6.9927,7.0004,7.0006,7.0108,7.016,7.0226,7.0274,7.0277,7.0335,7.033,7.0356,7.037,7.0456,7.0486,7.0446,7.059,7.0559,7.0569,7.0568,7.0579,7.0587,7.0577,7.0427,0,0,0,0,0,6.9941,7.0007,7.007,7.0153,7.018,7.0222,7.0261,7.0275,7.033,7.0351,7.0391,7.0442,7.0502,7.0542,7.0601,7.0696,7.0709,7.0736,7.0744,7.075,7.0759,7.0809,7.0821,7.069,7.069,7.069,0,0,6.9969,7.002,7.006,7.0156,7.0199,7.0264,7.0241,7.0311,7.0359,7.0361,7.0446,7.0476,7.0533,7.0624,7.0666,7.0651,7.0798,7.0758,7.0763,7.0768,7.0816,7.0829,7.084,7.0694,7.0694,7.0693,0,0,7.0054,7.0101,7.0174,7.0218,7.0283,7.0311,7.0328,7.0394,7.0415,7.0501,7.0503,7.0558,7.0663,7.0704,7.0738,7.0837,7.0834,7.0855,7.0897,7.0945,7.0956,7.0965,7.0999,7.1011,7.0863,7.0863,7.0863,0,7.0081,7.0183,7.0211,7.0282,7.0322,7.033,7.0402,7.0442,7.0522,7.0549,7.0532,7.0664,7.0703,7.0802,7.0826,7.0854,7.0872,7.0848,7.0953,7.0962,7.0971,7.1003,7.1016,7.0865,7.0865,7.0865,7.0864,0,7.0211,7.0281,7.0332,7.0413,7.0459,7.053,7.0565,7.0608,7.0618,7.0646,7.0731,7.0778,7.0847,7.0871,7.0881,7.0971,7.096,7.0948,7.0917,7.0985,7.1016,7.1029,7.0868,7.0867,7.0867,7.0866,0,0,7.0306,7.0401,7.0419,7.0455,7.0527,7.058,7.0649,7.0719,7.0754,7.0808,7.0866,7.0954,7.0943,7.0981,7.0995,7.1038,7.1111,7.102,7.1022,7.1034,7.1211,7.122,7.1234,7.111,7.1112,7.1114,7.1206,0,7.0399,7.0527,7.0553,7.0663,7.0726,7.0733,7.0793,7.0842,7.0869,7.0924,7.0953,7.1015,7.0996,7.1019,7.1062,7.1093,7.1147,7.1087,7.116,7.1163,7.1146,7.125,7.126,7.1344,7.1218,7.122,7.1222,0,7.0525,7.0585,7.0702,7.0764,7.0791,7.0846,7.091,7.0964,7.1018,7.1034,7.1077,7.1086,7.1155,7.1121,7.1214,7.1173,7.1204,7.1224,7.1227,7.1235,7.1196,7.1259,7.1372,7.1384,7.1241,7.124,7.1238,0,7.0581,7.0691,7.0775,7.0805,7.088,7.0918,7.095,7.1002,7.1041,7.1096,7.1121,7.1182,7.1216,7.1261,7.1285,7.1258,7.1376,7.1344,7.1389,7.1389,7.1414,7.1412,7.1532,7.1435,7.1435,7.1434,7.1434,0,7.0682,7.0752,7.0801,7.0852,7.093,7.0958,7.1033,7.1064,7.111,7.1165,7.1173,7.1224,7.1252,7.1306,7.1324,7.1398,7.1412,7.1426,7.143,7.1425,7.1423,7.1446,7.144,7.1438,7.1437,7.1436,7.1436,0,7.0758,7.0794,7.0885,7.0949,7.0967,7.1021,7.1074,7.1122,7.1149,7.1218,7.1236,7.1277,7.134,7.1368,7.1446,7.1458,7.1542,7.1542,7.1525,7.1526,7.1569,7.1564,7.1707,7.1727,7.1617,7.1618,7.1619,0,7.082,7.0875,7.0945,7.0984,7.1018,7.108,7.1121,7.1149,7.119,7.1255,7.1294,7.1358,7.1412,7.1512,7.1546,7.1605,7.1606,7.1652,7.1614,7.1607,7.1605,7.1601,7.1606,7.1658,7.1659,7.166,7.1661,0,7.0926,7.0941,7.1001,7.1067,7.1116,7.1168,7.1219,7.1249,7.1284,7.1329,7.1396,7.1437,7.1517,7.158,7.164,7.1669,7.167,7.1673,7.1686,7.1682,7.1669,7.1675,7.1543,7.1669,7.1668,7.1668,7.1667,7.1667,7.0997,7.1045,7.1102,7.1168,7.121,7.1257,7.1305,7.1339,7.1396,7.1465,7.1476,7.1546,7.1595,7.1678,7.1709,7.1762,7.175,7.177,7.1775,7.1779,7.1781,7.1661,7.1773,7.1773,7.1772,7.1772,7.1772,0,7.1102,7.1139,7.1199,7.1272,7.1323,7.1322,7.1377,7.1419,7.1482,7.1529,7.1582,7.1656,7.1717,7.1756,7.1816,7.1851,7.1852,7.1865,7.1863,7.1869,7.1789,7.1771,7.1863,7.1863,7.1863,7.1863,7.1863,7.1863,7.1163,7.1245,7.1266,7.1367,7.1402,7.1473,7.1505,7.1547,7.1585,7.167,7.1721,7.1747,7.179,7.1853,7.1907,7.1917,7.1938,7.1952,7.196,7.1884,7.1875,7.1866,7.1849,7.1956,7.1956,7.2036,7.2037,7.2037]}]]